FDY95 PHMK-PHOG

Flight info

Callsign FDY95
Flight time 0h 27m
Altitude 1500
Route DIRECT
Aircraft C208/L-VGD/C

Departure

Time 2026-04-16 04:27
Airport Molokai Airport (PHMK)

Arrival

Time 2026-04-16 04:54
Airport Kahului International Airport (PHOG)
Time Latitude Longitude Altitude Speed Heading
2026-04-16 04:22 21.15504 -157.09305 462 ft 0 kts 60°
2026-04-16 04:24 21.15486 -157.09307 462 ft 10 kts 207°
2026-04-16 04:24 21.15418 -157.09407 462 ft 22 kts 241°
2026-04-16 04:25 21.15336 -157.09565 462 ft 25 kts 241°
2026-04-16 04:25 21.15244 -157.09733 461 ft 27 kts 239°
2026-04-16 04:25 21.15149 -157.09907 461 ft 27 kts 237°
2026-04-16 04:25 21.15058 -157.10085 462 ft 27 kts 243°
2026-04-16 04:26 21.14981 -157.10105 463 ft 9 kts 135°
2026-04-16 04:26 21.15005 -157.10030 463 ft 23 kts 61°
2026-04-16 04:26 21.15172 -157.09711 463 ft 72 kts 60°
2026-04-16 04:26 21.15455 -157.09170 582 ft 93 kts 57°
2026-04-16 04:27 21.15809 -157.08534 748 ft 105 kts 60°
2026-04-16 04:27 21.16163 -157.07836 996 ft 107 kts 62°
2026-04-16 04:27 21.16509 -157.07141 1267 ft 106 kts 61°
2026-04-16 04:27 21.16909 -157.06442 1330 ft 119 kts 56°
2026-04-16 04:28 21.17395 -157.05670 1361 ft 126 kts 54°
2026-04-16 04:28 21.17925 -157.04894 1397 ft 130 kts 52°
2026-04-16 04:28 21.18481 -157.04095 1417 ft 136 kts 56°
2026-04-16 04:28 21.18789 -157.03163 1508 ft 132 kts 80°
2026-04-16 04:29 21.18884 -157.02151 1302 ft 139 kts 83°
2026-04-16 04:29 21.19133 -157.01167 1012 ft 135 kts 59°
2026-04-16 04:29 21.19616 -157.00352 720 ft 124 kts 61°
2026-04-16 04:29 21.19989 -156.99543 494 ft 120 kts 61°
2026-04-16 04:30 21.20325 -156.98891 314 ft 86 kts 62°
2026-04-16 04:30 21.20609 -156.98344 184 ft 83 kts 60°
2026-04-16 04:30 21.20869 -156.97829 67 ft 76 kts 59°
2026-04-16 04:30 21.21092 -156.97397 35 ft 51 kts 60°
2026-04-16 04:31 21.21173 -156.97225 35 ft 5 kts 43°
2026-04-16 04:31 21.21139 -156.97302 36 ft 24 kts 241°
2026-04-16 04:31 21.21044 -156.97487 34 ft 30 kts 242°
2026-04-16 04:31 21.20959 -156.97653 34 ft 20 kts 243°
2026-04-16 04:32 21.20930 -156.97704 34 ft 6 kts 356°
2026-04-16 04:32 21.20938 -156.97696 34 ft 6 kts 62°
2026-04-16 04:32 21.21052 -156.97471 34 ft 61 kts 63°
2026-04-16 04:32 21.21291 -156.96977 136 ft 85 kts 61°
2026-04-16 04:33 21.21351 -156.96283 316 ft 106 kts 99°
2026-04-16 04:33 21.21171 -156.95485 643 ft 113 kts 99°
2026-04-16 04:33 21.20988 -156.94650 970 ft 117 kts 101°
2026-04-16 04:33 21.20801 -156.93792 1213 ft 120 kts 100°
2026-04-16 04:34 21.20616 -156.92888 1373 ft 130 kts 99°
2026-04-16 04:34 21.20414 -156.91905 1438 ft 140 kts 100°
2026-04-16 04:34 21.20195 -156.90853 1470 ft 148 kts 100°
2026-04-16 04:34 21.19980 -156.89779 1483 ft 147 kts 100°
2026-04-16 04:35 21.19787 -156.88722 1482 ft 146 kts 99°
2026-04-16 04:35 21.19585 -156.87665 1491 ft 145 kts 100°
2026-04-16 04:35 21.19372 -156.86603 1501 ft 147 kts 99°
2026-04-16 04:35 21.19160 -156.85528 1490 ft 148 kts 99°
2026-04-16 04:36 21.18960 -156.84456 1489 ft 146 kts 99°
2026-04-16 04:36 21.18749 -156.83393 1493 ft 146 kts 100°
2026-04-16 04:36 21.18551 -156.82325 1483 ft 146 kts 100°
2026-04-16 04:36 21.18348 -156.81257 1489 ft 146 kts 99°
2026-04-16 04:37 21.18129 -156.80198 1489 ft 145 kts 100°
2026-04-16 04:37 21.17928 -156.79136 1486 ft 146 kts 99°
2026-04-16 04:37 21.17731 -156.78075 1489 ft 145 kts 99°
2026-04-16 04:37 21.17520 -156.77023 1493 ft 145 kts 100°
2026-04-16 04:38 21.17308 -156.75961 1493 ft 147 kts 104°
2026-04-16 04:38 21.16796 -156.75007 1494 ft 151 kts 127°
2026-04-16 04:38 21.16064 -156.74181 1501 ft 153 kts 130°
2026-04-16 04:38 21.15324 -156.73369 1480 ft 152 kts 130°
2026-04-16 04:39 21.14600 -156.72555 1480 ft 150 kts 131°
2026-04-16 04:39 21.13891 -156.71731 1493 ft 151 kts 128°
2026-04-16 04:39 21.13190 -156.70895 1480 ft 151 kts 128°
2026-04-16 04:39 21.12491 -156.70061 1474 ft 150 kts 129°
2026-04-16 04:40 21.11794 -156.69228 1480 ft 150 kts 129°
2026-04-16 04:40 21.11070 -156.68425 1483 ft 152 kts 139°
2026-04-16 04:40 21.10057 -156.68067 1492 ft 158 kts 171°
2026-04-16 04:40 21.08948 -156.68032 1487 ft 160 kts 176°
2026-04-16 04:41 21.07837 -156.68025 1476 ft 159 kts 175°
2026-04-16 04:41 21.06739 -156.67991 1459 ft 156 kts 174°
2026-04-16 04:41 21.05658 -156.67934 1469 ft 155 kts 174°
2026-04-16 04:41 21.04581 -156.67868 1475 ft 155 kts 174°
2026-04-16 04:42 21.03496 -156.67800 1359 ft 158 kts 173°
2026-04-16 04:42 21.02433 -156.67725 1235 ft 150 kts 173°
2026-04-16 04:42 21.01413 -156.67647 1094 ft 145 kts 173°
2026-04-16 04:42 21.00437 -156.67562 1000 ft 137 kts 170°
2026-04-16 04:43 20.99624 -156.67320 969 ft 99 kts 161°
2026-04-16 04:43 20.98962 -156.67187 812 ft 99 kts 169°
2026-04-16 04:43 20.98289 -156.67016 714 ft 100 kts 163°
2026-04-16 04:43 20.97610 -156.66867 572 ft 99 kts 174°
2026-04-16 04:44 20.96937 -156.66946 346 ft 96 kts 202°
2026-04-16 04:44 20.96414 -156.67238 256 ft 71 kts 208°
2026-04-16 04:44 20.96074 -156.67433 253 ft 42 kts 211°
2026-04-16 04:44 20.95960 -156.67515 252 ft 5 kts 238°
2026-04-16 04:45 20.95954 -156.67499 252 ft 8 kts 30°
2026-04-16 04:45 20.95969 -156.67491 252 ft 11 kts 29°
2026-04-16 04:45 20.96210 -156.67353 253 ft 66 kts 28°
2026-04-16 04:45 20.96709 -156.67069 352 ft 91 kts 18°
2026-04-16 04:46 20.97344 -156.67134 642 ft 96 kts 324°
2026-04-16 04:46 20.97905 -156.67574 832 ft 110 kts 329°
2026-04-16 04:46 20.98612 -156.68015 1023 ft 121 kts 351°
2026-04-16 04:46 20.99422 -156.67789 1223 ft 127 kts 28°
2026-04-16 04:47 21.00099 -156.67155 1362 ft 136 kts 52°
2026-04-16 04:47 21.00583 -156.66249 1442 ft 140 kts 62°
2026-04-16 04:47 21.00978 -156.65318 1459 ft 140 kts 67°
2026-04-16 04:47 21.01360 -156.64353 1482 ft 142 kts 68°
2026-04-16 04:48 21.01743 -156.63367 1502 ft 145 kts 67°
2026-04-16 04:48 21.02144 -156.62360 1515 ft 149 kts 68°
2026-04-16 04:48 21.02296 -156.61291 1498 ft 149 kts 102°
2026-04-16 04:48 21.01763 -156.60350 1472 ft 148 kts 126°
2026-04-16 04:49 21.01141 -156.59482 1484 ft 145 kts 124°
2026-04-16 04:49 21.00746 -156.58889 1481 ft 145 kts 122°
2026-04-16 04:49 21.00156 -156.58007 1490 ft 146 kts 123°
2026-04-16 04:49 20.99571 -156.57129 1513 ft 148 kts 124°
2026-04-16 04:50 20.98962 -156.56233 1494 ft 149 kts 123°
2026-04-16 04:50 20.98352 -156.55330 1532 ft 151 kts 124°
2026-04-16 04:50 20.97724 -156.54406 1561 ft 155 kts 124°
2026-04-16 04:50 20.97081 -156.53484 1519 ft 154 kts 124°
2026-04-16 04:51 20.96450 -156.52562 1524 ft 154 kts 124°
2026-04-16 04:51 20.95812 -156.51644 1508 ft 153 kts 124°
2026-04-16 04:51 20.95173 -156.50723 1411 ft 157 kts 124°
2026-04-16 04:51 20.94515 -156.49774 1299 ft 161 kts 124°
2026-04-16 04:52 20.93843 -156.48808 1177 ft 162 kts 124°
2026-04-16 04:52 20.93198 -156.47867 1053 ft 152 kts 124°
2026-04-16 04:52 20.92585 -156.46964 938 ft 149 kts 124°
2026-04-16 04:52 20.91935 -156.46132 919 ft 137 kts 151°
2026-04-16 04:53 20.91141 -156.46045 939 ft 99 kts 179°
2026-04-16 04:53 20.90471 -156.45877 760 ft 98 kts 155°
2026-04-16 04:53 20.89907 -156.45446 507 ft 99 kts 132°
2026-04-16 04:53 20.89601 -156.44793 322 ft 97 kts 100°
2026-04-16 04:54 20.89638 -156.44114 147 ft 88 kts 70°
2026-04-16 04:54 20.89861 -156.43581 44 ft 68 kts 64°
2026-04-16 04:54 20.90015 -156.43229 42 ft 34 kts 65°
2026-04-16 04:54 20.90053 -156.43117 42 ft 5 kts 38°
2026-04-16 04:55 20.90045 -156.43144 42 ft 7 kts 241°
2026-04-16 04:55 20.90000 -156.43246 42 ft 22 kts 245°
2026-04-16 04:55 20.89892 -156.43313 43 ft 17 kts 181°
2026-04-16 04:55 20.89787 -156.43344 44 ft 15 kts 259°
2026-04-16 04:56 20.89785 -156.43452 44 ft 16 kts 267°
2026-04-16 04:56 20.89742 -156.43570 44 ft 14 kts 244°
2026-04-16 04:56 20.89690 -156.43600 44 ft 9 kts 154°
2026-04-16 04:56 20.89677 -156.43569 44 ft 4 kts 63°
2026-04-16 04:57 20.89678 -156.43566 44 ft 0 kts 63°